Location: Bothwell
(42.3833°S, 147.0000°E)
Time: 08:09:34
(UTC+10:00)

LilacSat-2 - Pass Details

Date: 27 September 2022
Orbit: 494 x 512 km, 97.5° (Epoch: 25 September)

Event Time Altitude Azimuth Distance (km) Brightness Sun altitude
Rises 04:11:25 0° 53° (NE) 2,742 ? -19.2°
Reaches altitude 10° 04:14:08 10° 73° (ENE) 1,853 ? -18.7°
Maximum altitude 04:16:45 17° 114° (ESE) 1,458 ? -18.3°
Drops below altitude 10° 04:19:22 10° 155° (SSE) 1,856 ? -17.8°
Sets 04:22:05 0° 175° (S) 2,750 ? -17.4°
